Weather in Petrivka

Ukraine / Luhansk Region     48°32′01″N   38°48′59″E
temp.,
°C
wind,
m/s
gust,
m/s
humid.,
%
clouds,
%
prec.,
mm/h
press.,
hPa
HPBL,
m
16 may, mon
mon1600:00+10w511855 0.0 1012238
03:00+8w511912 0.0 1012254
06:00+9w612875 0.0 1012417
09:00+13wnw710665 0.0 10131216
12:00+16nw8104376 0.0 10132430
15:00+17wnw8103997 0.0 10142702
18:00+15wnw69515 0.0 10141586
21:00+10w487035 0.0 1015124
17 may, tue
tue1700:00+9wsw4973100 0.0 1015171
03:00+8wsw498367 0.1 1014222
06:00+8w49825 0.0 1015332
09:00+13wnw610490 0.0 10141483
12:00+15wnw71043100 0.0 10132479
15:00+16w7114567 0.0 10122338
18:00+14wnw6106131 0.4 10121277
21:00+10w357415 0.4 1012113
18 may, wed
wed1800:00+10wsw387687 0.1 1011251
03:00+9wsw51085100 0.5 1010286
06:00+8w3888100 0.0 1010265
09:00+11nw5756100 0.0 1010938
12:00+14wnw564191 0.0 10102295
15:00+15nw6639100 0.0 10102267
18:00+12nnw676399 0.4 10121047
21:00+8nw4885100 0.6 1014195
19 may, thu
thu1900:00+6nw489511 0.0 1015177
03:00+5nw410965 0.0 1016261
06:00+6wnw38905 0.0 1019241
09:00+12nw56665 0.0 1019892
12:00+14nw785597 0.2 10201814
15:00+15nw8947100 0.2 10192140
18:00+13wnw5958100 0.0 1019837
21:00+11w51269100 0.0 1020379
20 may, fri
fri2000:00+10w51076100 0.0 1019264
03:00+9wnw41082100 0.1 1019424
06:00+9wnw3992100 0.6 1019575
09:00+9nne248964 1.2 1020445
12:00+13n335990 0.3 10201447
15:00+14w1348100 0.4 10181503
18:00+15w3448100 0.0 10181064
21:00+12ssw3663100 0.0 1017125